Beckley, WV

9:19 AM EDT on September 19, 2019 (GMT -0400)
Raleigh County Memorial

Weather History for KBKW - July, 2019

Change the Weather History Date:

Saturday, July 13, 2019

  Actual Average Record
Temperature  
Mean Temperature 75 °F 71 °F  
Max Temperature 86 °F 80 °F 90 °F (1954)
Min Temperature 63 °F 62 °F 46 °F (1953)
Degree Days  
Heating Degree Days 0 0  
Month to date heating degree days 0 0  
Since 1 June heating degree days 33 39  
Since 1 July heating degree days 0 0  
Cooling Degree Days 10 6  
Month to date cooling degree days 133 78  
Year to date cooling degree days 359 230  
Since 1 June cooling degree days 239 189  
Growing Degree Days 24 (Base 50)    
Moisture  
Dew Point 60 °F    
Average Humidity 67    
Maximum Humidity 93    
Minimum Humidity 40    
Precipitation  
Precipitation 0.00 in 0.17 in 1.63 in (1949)
Month to date precipitation 1.99 2.01  
Year to date precipitation 24.88 23.17  
Sea Level Pressure  
Sea Level Pressure 30.01 in    
Wind  
Wind Speed 4 mph (WNW)    
Max Wind Speed 14 mph    
Max Gust Speed 17 mph    
Visibility 10 miles    
Events      
T = Trace of Precipitation, MM = Missing Value Source: NWS Daily Summary

Daily Weather History Graph

Daily Weather History Graph

Search for Another Location

Airport or City:

Astronomy

Jul. 13, 2019 Rise Set
Actual Time 6:13 AM EDT 8:47 PM EDT
Civil Twilight 5:42 AM EDT 9:17 PM EDT
Nautical Twilight 5:04 AM EDT 9:55 PM EDT
Astronomical Twilight 4:21 AM EDT 10:37 PM EDT
Moon 6:08 PM EDT (7/13) 3:31 AM EDT (7/13)
Length of Visible Light 15h 35m
Length of Day
14h 34m
Waxing Gibbous, 90% of the Moon is Illuminated
Jul 13
Waxing Gibbous
Jul 16
Full
Jul 24
Last Quarter
Jul 31
New
Aug 7
First Quarter

Hourly Weather History & Observations

Time (EDT) Temp. Heat Index Dew Point Humidity Pressure Visibility Wind Dir Wind Speed Gust Speed Precip Events Conditions
12:51 AM 68.0 °F - 64.0 °F 87% 29.95 in 10.0 mi Calm Calm - N/A   Clear
1:51 AM 66.9 °F - 63.0 °F 87% 29.95 in 10.0 mi Calm Calm - N/A   Clear
2:51 AM 64.9 °F - 62.1 °F 90% 29.96 in 10.0 mi SSE 4.6 mph - N/A   Clear
3:51 AM 66.0 °F - 62.1 °F 87% 29.96 in 10.0 mi Calm Calm - N/A   Clear
4:51 AM 64.0 °F - 62.1 °F 93% 29.98 in 8.0 mi Calm Calm - N/A   Clear
5:51 AM 63.0 °F - 61.0 °F 93% 30.00 in 5.0 mi Calm Calm - N/A   Clear
6:51 AM 64.0 °F - 61.0 °F 90% 30.01 in 9.0 mi Calm Calm - N/A   Clear
7:51 AM 68.0 °F - 64.9 °F 90% 30.02 in 9.0 mi Calm Calm - N/A   Clear
8:51 AM 73.0 °F - 64.9 °F 76% 30.03 in 10.0 mi Calm Calm - N/A   Clear
9:51 AM 75.9 °F - 63.0 °F 64% 30.04 in 10.0 mi WSW 3.5 mph - N/A   Partly Cloudy
10:51 AM 80.1 °F 81.1 °F 61.0 °F 52% 30.05 in 10.0 mi Variable 5.8 mph - N/A   Partly Cloudy
11:51 AM 78.1 °F - 60.1 °F 54% 30.07 in 10.0 mi Variable 4.6 mph - N/A   Scattered Clouds
12:51 PM 82.0 °F 81.7 °F 57.0 °F 42% 30.05 in 10.0 mi West 9.2 mph - N/A   Clear
1:51 PM 82.9 °F 82.1 °F 55.9 °F 39% 30.03 in 10.0 mi WNW 10.4 mph - N/A   Clear
2:51 PM 84.0 °F 83.8 °F 59.0 °F 43% 30.03 in 10.0 mi WNW 8.1 mph - N/A   Clear
3:51 PM 84.0 °F 83.3 °F 57.0 °F 40% 30.01 in 10.0 mi NW 6.9 mph - N/A   Clear
4:51 PM 84.9 °F 84.2 °F 57.9 °F 40% 30.01 in 10.0 mi WNW 8.1 mph - N/A   Clear
5:51 PM 84.0 °F 83.5 °F 57.9 °F 41% 30.01 in 10.0 mi NW 10.4 mph - N/A   Clear
6:51 PM 82.9 °F 82.4 °F 57.0 °F 41% 30.01 in 10.0 mi NNW 5.8 mph - N/A   Clear
7:51 PM 81.0 °F 81.0 °F 57.0 °F 44% 30.02 in 10.0 mi NW 4.6 mph - N/A   Clear
8:51 PM 77.0 °F - 59.0 °F 54% 30.03 in 10.0 mi NNW 3.5 mph - N/A   Clear
9:51 PM 73.9 °F - 59.0 °F 59% 30.05 in 10.0 mi NW 3.5 mph - N/A   Clear
10:51 PM 68.0 °F - 60.1 °F 76% 30.07 in 10.0 mi Calm Calm - N/A   Clear
11:51 PM 69.1 °F - 60.1 °F 73% 30.06 in 10.0 mi South 3.5 mph - N/A   Clear